[[{"header":{"parameterUnit":"m.s-1","parameterCategory":1,"la1":30.2991,"la2":30.254,"lo1":-89.0895,"lo2":-89.0444,"dy":0.0017,"dx":0.0017,"nx":28,"ny":28,"refTime":"2024-06-20T09:00:00:Z","depth":0,"parameterNumber":2,"parameterNumberName":"U-component_of_WINDS"},"data":[0,0,0,0,0,0,0,0,0,0,0,0,0,0,0,0,0,0,0,0,0,0,0,0,0,0,0,0,0,0,0,0,0,0,0,0,0,0,0,0,0,0,0,0,0,0,0,0,0,0,0,0,0,0,0,0,0,0,-5.3375,-5.3375,0,-5.3357,-5.3357,-5.3357,-5.32,-5.3196,-5.3192,-5.3188,-5.3176,-5.3179,-5.3182,0,0,0,0,0,0,0,0,0,0,0,0,0,-5.3282,-5.3284,-5.3375,-5.3375,-5.3375,-5.3357,-5.3357,-5.3357,-5.3201,-5.3196,-5.3191,-5.3187,-5.3174,-5.3178,-5.3182,0,0,0,0,0,0,0,0,0,0,0,0,0,-5.3299,-5.3285,-5.3375,-5.3295,-5.3287,-5.3357,-5.3357,-5.3357,-5.3202,-5.3196,-5.319,-5.3184,-5.3173,-5.3178,-5.3183,-5.3331,0,0,-5.3198,-5.32,0,0,0,0,0,0,0,0,-5.3298,-5.3303,-5.3307,-5.33,-5.3292,-5.3275,-5.3319,-5.3348,-5.3203,-5.3234,-5.3188,-5.3181,-5.3214,-5.3215,-5.3224,-5.333,-5.3329,-5.3198,-5.3201,-5.3203,-5.3205,0,0,0,0,0,0,0,-5.3297,-5.3303,-5.3368,-5.3307,-5.3298,-5.3262,-5.3258,-5.3324,-5.3257,-5.3231,-5.322,-5.3219,-5.3209,-5.322,-5.3223,-5.3329,-5.3198,-5.3203,-5.3206,-5.3208,-5.3559,-5.3565,0,0,0,0,0,0,-5.3307,-5.3303,-5.3369,-5.3368,-5.3281,-5.3268,-5.3264,-5.3286,-5.3256,-5.3246,-5.3224,-5.3212,-5.3215,-5.3217,-5.3222,-5.3395,-5.3203,-5.3208,-5.3211,-5.3553,-5.356,-5.3567,0,0,0,0,0,0,-5.3305,-5.3314,-5.3369,-5.3332,-5.3336,-5.3276,-5.3303,-5.3289,-5.33,-5.3251,-5.3239,-5.3248,-5.321,-5.3215,-5.3305,-5.3392,-5.321,-5.3215,-5.3545,-5.3555,-5.3564,-5.3741,0,0,0,0,0,0,-5.3303,-5.3314,-5.3368,-5.3334,-5.3339,-5.3451,-5.3308,-5.3293,-5.3309,-5.3292,-5.327,-5.326,-5.3206,-5.3299,-5.331,-5.3396,-5.3219,-5.3537,-5.3549,-5.3561,-5.3727,-5.3756,-5.378,0,0,0,0,0,-5.33,-5.3419,-5.3371,-5.338,-5.3404,-5.3456,-5.3459,-5.3392,-5.3316,-5.3371,-5.334,-5.3261,-5.3381,-5.3309,-5.3321,-5.3409,-5.3531,-5.3546,-5.356,-5.3715,-5.375,-5.3779,0,0,0,0,0,0,-5.3465,-5.3413,-5.336,-5.347,-5.3469,-5.343,-5.3496,-5.343,-5.3452,-5.3436,-5.3354,-5.335,-5.3454,-5.344,-5.3361,-5.3553,-5.3443,-5.346,-5.3557,-5.359,-5.3615,-5.3617,-5.3223,0,0,0,0,0,-5.3515,-5.3559,-5.3512,-5.3614,-5.3616,-5.3557,-5.3577,-5.3526,-5.3522,-5.3521,-5.3496,-5.3497,-5.3535,-5.3561,-5.3593,-5.3725,-5.3719,-5.3792,-5.3818,-5.384,-5.3856,-5.3928,-5.396,-5.3614,-5.3614,-5.3614,0,0,-5.3617,-5.3594,-5.3627,-5.3647,-5.364,-5.369,-5.3558,-5.3616,-5.3653,-5.353,-5.3613,-5.3596,-5.3592,-5.3704,-5.3752,-5.3696,-5.3951,-5.3858,-5.3876,-5.388,-5.3946,-5.3979,-5.4008,-5.3624,-5.3622,-5.3621,0,0,-5.3829,-5.3815,-5.39,-5.3896,-5.3886,-5.3847,-5.3868,-5.3839,-5.3822,-5.3905,-5.3814,-5.3859,-5.3925,-5.3927,-5.3936,-5.4153,-5.4083,-5.4166,-5.4304,-5.4375,-5.4402,-5.4426,-5.4505,-5.4535,-5.4182,-5.4183,-5.4183,0,-5.3958,-5.4028,-5.3953,-5.4018,-5.4031,-5.3921,-5.4008,-5.4008,-5.4011,-5.4024,-5.396,-5.4043,-5.4032,-5.4145,-5.4198,-5.4209,-5.4233,-5.4168,-5.4404,-5.4427,-5.4448,-5.4523,-5.4553,-5.4193,-5.4192,-5.4191,-5.419,0,-5.4188,-5.4238,-5.4309,-5.4313,-5.4334,-5.441,-5.4349,-5.438,-5.4328,-5.4297,-5.4384,-5.4368,-5.4396,-5.4419,-5.4368,-5.4526,-5.4491,-5.4418,-5.4305,-5.4493,-5.4562,-5.459,-5.4208,-5.4204,-5.4201,-5.4199,0,0,-5.4501,-5.4465,-5.4492,-5.4494,-5.4477,-5.4516,-5.4589,-5.4615,-5.4644,-5.4651,-5.4712,-5.4772,-5.4704,-5.4716,-5.4665,-5.4728,-5.4904,-5.4646,-5.4645,-5.4696,-5.5079,-5.5136,-5.517,-5.4857,-5.4862,-5.4866,-5.508,0,-5.4707,-5.4826,-5.4763,-5.4892,-5.494,-5.4838,-5.4902,-5.4901,-5.4874,-5.4913,-5.4884,-5.4928,-5.4834,-5.4841,-5.4898,-5.487,-5.498,-5.4854,-5.4916,-5.4919,-5.492,-5.5205,-5.5264,-5.5467,-5.5106,-5.5111,-5.5114,0,-5.4961,-5.4978,-5.5113,-5.5089,-5.5107,-5.5165,-5.5186,-5.5223,-5.5221,-5.5197,-5.5212,-5.5148,-5.5221,-5.5111,-5.5212,-5.5128,-5.515,-5.5141,-5.5147,-5.5151,-5.5028,-5.5218,-5.5529,-5.556,-5.5156,-5.5152,-5.5149,0,-5.5179,-5.5235,-5.5323,-5.5328,-5.5303,-5.5347,-5.5339,-5.533,-5.5352,-5.5371,-5.5384,-5.5412,-5.5428,-5.5453,-5.54,-5.5324,-5.551,-5.5394,-5.5495,-5.5497,-5.5538,-5.5537,-5.5859,-5.5552,-5.5551,-5.5551,-5.555,0,-5.5415,-5.5502,-5.5421,-5.5476,-5.5571,-5.5499,-5.5596,-5.5577,-5.5572,-5.5623,-5.5537,-5.5588,-5.5514,-5.5558,-5.5518,-5.561,-5.5617,-5.5602,-5.559,-5.561,-5.5613,-5.5624,-5.5609,-5.5559,-5.5557,-5.5555,-5.5554,0,-5.5674,-5.5623,-5.5713,-5.5682,-5.5677,-5.5749,-5.5724,-5.5774,-5.5743,-5.5809,-5.5821,-5.5772,-5.582,-5.5769,-5.5814,-5.5787,-5.5911,-5.5878,-5.5911,-5.5903,-5.6007,-5.5998,-5.6348,-5.6391,-5.6056,-5.6059,-5.6062,0,-5.5828,-5.5892,-5.5869,-5.5896,-5.5893,-5.5939,-5.596,-5.5893,-5.5919,-5.5923,-5.5974,-5.6015,-5.6044,-5.6126,-5.6096,-5.6131,-5.6099,-5.622,-5.6104,-5.6123,-5.6103,-5.6101,-5.6108,-5.6243,-5.6247,-5.6251,-5.6253,0,-5.6108,-5.608,-5.6112,-5.6138,-5.6166,-5.6183,-5.6193,-5.6222,-5.6152,-5.6187,-5.6234,-5.6257,-5.6303,-5.6346,-5.6372,-5.6366,-5.6301,-5.629,-5.6315,-5.6337,-5.6354,-5.6348,-5.5977,-5.6282,-5.6279,-5.6277,-5.6276,-5.6274,-5.632,-5.6373,-5.6366,-5.6406,-5.6407,-5.642,-5.6467,-5.6442,-5.6479,-5.651,-5.6469,-5.6529,-5.6529,-5.6557,-5.656,-5.6608,-5.6557,-5.6594,-5.6603,-5.6614,-5.663,-5.6346,-5.6613,-5.6612,-5.6611,-5.661,-5.661,0,-5.6597,-5.6587,-5.6625,-5.6643,-5.6676,-5.6609,-5.6618,-5.6651,-5.6704,-5.6708,-5.6739,-5.6796,-5.6838,-5.6812,-5.6849,-5.6892,-5.6863,-5.6904,-5.6901,-5.6902,-5.6672,-5.6647,-5.6928,-5.6927,-5.6927,-5.6927,-5.6927,-5.6927,-5.6744,-5.6832,-5.6805,-5.6894,-5.6884,-5.6941,-5.6952,-5.6965,-5.6968,-5.7035,-5.7069,-5.7052,-5.7045,-5.7081,-5.7118,-5.711,-5.7128,-5.7181,-5.7162,-5.6948,-5.6917,-5.6887,-5.6863,-5.7185,-5.7185,-5.7387,-5.7389,-5.7391]},{"header":{"parameterUnit":"m.s-1","parameterCategory":1,"la1":30.2991,"la2":30.254,"lo1":-89.0895,"lo2":-89.0444,"dy":0.0017,"dx":0.0017,"nx":28,"ny":28,"refTime":"2024-06-20T09:00:00:Z","depth":0,"parameterNumber":3,"parameterNumberName":"V-component_of_WINDS"},"data":[0,0,0,0,0,0,0,0,0,0,0,0,0,0,0,0,0,0,0,0,0,0,0,0,0,0,0,0,0,0,0,0,0,0,0,0,0,0,0,0,0,0,0,0,0,0,0,0,0,0,0,0,0,0,0,0,0,0,1.8281,1.8281,0,1.831,1.8311,1.8311,1.8357,1.8358,1.8359,1.836,1.8386,1.8386,1.8386,0,0,0,0,0,0,0,0,0,0,0,0,0,1.8261,1.8261,1.8281,1.8281,1.8281,1.831,1.8311,1.8311,1.8357,1.8358,1.8359,1.836,1.8386,1.8386,1.8386,0,0,0,0,0,0,0,0,0,0,0,0,0,1.8278,1.8261,1.8281,1.8308,1.8311,1.831,1.8311,1.8311,1.8357,1.8358,1.836,1.8361,1.8386,1.8386,1.8386,1.836,0,0,1.8386,1.8386,0,0,0,0,0,0,0,0,1.8277,1.8279,1.8304,1.8306,1.8309,1.8332,1.8314,1.8327,1.8357,1.8339,1.836,1.8361,1.8367,1.8368,1.8371,1.8361,1.8362,1.8386,1.8386,1.8386,1.8386,0,0,0,0,0,0,0,1.8276,1.8278,1.8292,1.8304,1.8307,1.8318,1.8322,1.8316,1.8345,1.8341,1.8344,1.8348,1.8369,1.8371,1.8372,1.8363,1.8386,1.8386,1.8386,1.8386,1.8333,1.8331,0,0,0,0,0,0,1.8271,1.8276,1.8291,1.8293,1.8296,1.8317,1.8322,1.8323,1.8346,1.835,1.8346,1.835,1.8371,1.8372,1.8373,1.8343,1.8386,1.8386,1.8385,1.8334,1.8332,1.8331,0,0,0,0,0,0,1.8271,1.8272,1.829,1.8286,1.8289,1.8316,1.8318,1.8323,1.8325,1.835,1.8355,1.8344,1.8372,1.8373,1.8363,1.8345,1.8385,1.8385,1.8336,1.8333,1.8332,1.8283,0,0,0,0,0,0,1.827,1.8272,1.8262,1.8285,1.8289,1.828,1.8317,1.8323,1.8326,1.833,1.8349,1.8353,1.8373,1.8363,1.8363,1.8345,1.8385,1.8337,1.8335,1.8332,1.8286,1.828,1.8274,0,0,0,0,0,1.8269,1.8247,1.8262,1.8263,1.8278,1.8279,1.8281,1.8305,1.8324,1.8314,1.833,1.8352,1.8347,1.8362,1.8362,1.8344,1.8338,1.8335,1.8332,1.8289,1.8281,1.8274,0,0,0,0,0,0,1.8219,1.825,1.8267,1.8252,1.8263,1.8287,1.8275,1.8296,1.8301,1.8305,1.8334,1.8338,1.8323,1.8333,1.8348,1.832,1.8346,1.8343,1.8313,1.8306,1.83,1.8296,1.8385,0,0,0,0,0,1.8206,1.8205,1.8233,1.8216,1.8221,1.8247,1.8249,1.8267,1.8279,1.8283,1.8298,1.8308,1.8309,1.8308,1.831,1.8289,1.8293,1.8277,1.8271,1.8265,1.8261,1.825,1.8243,1.8321,1.8321,1.8321,0,0,1.8179,1.8197,1.8194,1.8207,1.8217,1.8215,1.8251,1.8246,1.8244,1.8282,1.8273,1.8285,1.8298,1.8282,1.8275,1.8289,1.8241,1.8262,1.8257,1.8256,1.8246,1.8239,1.8232,1.8319,1.8319,1.832,0,0,1.8129,1.8143,1.813,1.8141,1.8157,1.8175,1.8172,1.8194,1.8204,1.8196,1.8224,1.8222,1.8223,1.8231,1.8235,1.819,1.8209,1.819,1.8156,1.8144,1.8138,1.8133,1.8115,1.8108,1.8186,1.8186,1.8186,0,1.8093,1.8091,1.8121,1.8115,1.8119,1.8156,1.8143,1.8152,1.8167,1.8169,1.8185,1.8187,1.8198,1.8184,1.8173,1.8176,1.8173,1.8186,1.8137,1.8132,1.8127,1.811,1.8104,1.8184,1.8184,1.8184,1.8184,0,1.8045,1.8044,1.8032,1.8048,1.8051,1.8042,1.8069,1.8069,1.8088,1.8104,1.8095,1.8111,1.8116,1.8115,1.8133,1.8103,1.8111,1.8132,1.8159,1.8116,1.8101,1.8095,1.818,1.8181,1.8181,1.8182,0,0,1.796,1.7995,1.799,1.7997,1.8019,1.8018,1.8011,1.8018,1.8016,1.8027,1.802,1.8021,1.804,1.8045,1.8064,1.8054,1.8016,1.8076,1.8077,1.8062,1.7983,1.7965,1.7957,1.8031,1.803,1.8029,1.7981,0,1.7912,1.7902,1.793,1.7912,1.791,1.7946,1.794,1.7952,1.7967,1.7967,1.7984,1.7984,1.8011,1.8013,1.8006,1.8022,1.8,1.8026,1.8022,1.8022,1.8015,1.7949,1.793,1.7884,1.7975,1.7974,1.7973,0,1.7854,1.7863,1.7845,1.7869,1.7869,1.7863,1.7871,1.7872,1.7887,1.7899,1.7905,1.7928,1.7921,1.795,1.794,1.7957,1.7958,1.7966,1.7965,1.7962,1.7993,1.7943,1.787,1.7862,1.7965,1.7965,1.7966,0,1.7791,1.7799,1.7789,1.7795,1.7823,1.7817,1.7828,1.7845,1.7847,1.7855,1.7857,1.7864,1.7866,1.787,1.7894,1.7913,1.7881,1.7912,1.7889,1.7888,1.7877,1.7877,1.7801,1.7883,1.7883,1.7883,1.7883,0,1.7732,1.7719,1.7761,1.7755,1.7742,1.7774,1.776,1.7774,1.7789,1.7785,1.7818,1.7813,1.7847,1.7846,1.7865,1.7853,1.7854,1.7862,1.7867,1.7858,1.7856,1.7856,1.7858,1.7881,1.7881,1.7882,1.7882,0,1.7658,1.7686,1.7678,1.7706,1.7713,1.7701,1.7725,1.772,1.7739,1.7734,1.7734,1.7763,1.7764,1.7789,1.7795,1.7808,1.7787,1.7799,1.7782,1.7784,1.7759,1.776,1.7677,1.7667,1.7758,1.7757,1.7756,0,1.7617,1.7608,1.7637,1.7637,1.7647,1.7648,1.7652,1.7684,1.7686,1.7703,1.7695,1.7699,1.7703,1.7703,1.7723,1.7728,1.7738,1.7709,1.7739,1.773,1.7735,1.7734,1.7732,1.7701,1.77,1.7699,1.7699,0,1.7541,1.7556,1.756,1.757,1.7574,1.7583,1.7593,1.7592,1.7627,1.7628,1.763,1.7633,1.764,1.7643,1.7652,1.7662,1.7685,1.769,1.7684,1.7673,1.7663,1.7665,1.7761,1.7691,1.7692,1.7692,1.7693,1.7693,1.7481,1.7474,1.7493,1.7497,1.751,1.7519,1.7516,1.7535,1.7538,1.7547,1.7566,1.7565,1.758,1.7595,1.7603,1.7602,1.7616,1.7608,1.7606,1.7603,1.7597,1.7666,1.7604,1.7604,1.7604,1.7604,1.7605,0,1.7404,1.7419,1.7423,1.7437,1.744,1.7466,1.7479,1.7479,1.7478,1.7492,1.7496,1.7498,1.7502,1.7524,1.7529,1.7523,1.7534,1.7523,1.7522,1.7524,1.7585,1.7588,1.7515,1.7515,1.7515,1.7515,1.7515,1.7515,1.7364,1.7354,1.7372,1.7369,1.7384,1.7384,1.7389,1.7398,1.7409,1.741,1.7414,1.7429,1.7445,1.7453,1.7456,1.7463,1.7462,1.7447,1.7456,1.7511,1.752,1.7528,1.7531,1.7447,1.7447,1.7395,1.7395,1.7394]}]]